Location: Bodedera
(53.2833°N, 4.5000°W)
Time: 03:18:29
(UTC+00:00)

Daily predictions for brighter satellites

Satellite Brightness Start Highest point End
(mag) Time Altitude Azimuth Time Altitude Azimuth Time Altitude Azimuth
SL-16 R/B 4.2 00:45:03 28° NNE 00:45:03 28° NNE 00:48:19 10° N
ATLAS 3B R/B 4.0 01:07:22 34° NNE 01:07:22 34° NNE 01:11:40 10° NE
Cosmos 2322 Rocket 4.3 01:28:06 10° NNW 01:31:09 23° N 01:31:09 23° N
CENTAUR R/B 4.0 01:40:37 25° NW 01:44:25 41° NNE 01:52:17 10° E
SL-16 R/B 4.3 01:55:01 10° NNW 01:56:56 20° NNW 01:56:56 20° NNW
CZ-2D R/B 4.0 02:06:05 10° NNE 02:08:21 27° NNE 02:08:21 27° NNE
ADEOS Rocket 4.1 02:23:03 35° NNE 02:23:03 35° NNE 02:26:44 10° N
SL-16 R/B 4.3 02:30:08 22° NNW 02:30:08 22° NNW 02:32:13 10° NNW
Lacrosse 5 4.1 02:42:08 19° E 02:42:08 19° E 02:43:34 10° E
Cosmos 2360 Rocket 3.4 02:39:35 10° NNW 02:44:56 40° NE 02:50:16 10° ESE
USA 238 DEB 4.4 02:44:32 21° NW 02:49:19 54° NNE 02:56:37 10° ESE
USA 238 4.4 02:44:37 21° NW 02:49:25 54° NNE 02:56:42 10° ESE
Resurs 1-4 Rocket 3.6 02:44:20 10° N 02:47:06 30° N 02:47:06 30° N
ARIANE 5 R/B 3.9 02:49:25 10° NNE 02:53:21 33° ENE 02:53:21 33° ENE
ATLAS 3B R/B 4.0 02:54:35 26° NW 02:57:20 35° N 03:03:41 10° ENE
Cosmos 2333 Rocket 3.9 03:01:15 10° NNW 03:06:24 32° NE 03:11:33 10° ESE
NOSS 3-1 (C) 3.9 03:08:59 54° NNW 03:08:59 54° NNW 03:15:17 10° NE
Cosmos 2082 Rocket 2.7 03:11:09 54° N 03:11:09 54° N 03:15:38 10° NNE
Cosmos 1833 Rocket 3.6 03:12:45 39° N 03:12:45 39° N 03:16:52 10° NNE
ADEOS II 3.0 03:07:36 10° NNE 03:11:06 42° N 03:11:06 42° N
USA 267 3.3 03:10:55 10° ENE 03:17:26 66° SSE 03:17:27 66° SSE
Cosmos 2322 Rocket 4.3 03:11:56 10° NNW 03:12:56 16° NNW 03:12:56 16° NNW
IDEFIX/ARIANE 42P 3.1 03:12:34 10° NNE 03:16:53 57° NE 03:16:53 57° NE
NOSS 3-2 (A) 4.0 03:13:42 17° NW 03:19:31 75° NE 03:27:48 10° SE
COSMOS 2406 4.2 03:21:43 38° NNW 03:21:43 38° NNW 03:26:15 10° NNE
Cosmos 1553 Rocket 4.4 03:26:48 42° SE 03:28:39 58° E 03:34:45 10° NNE
Cosmos 2219 Rocket 3.6 03:24:32 10° NNW 03:29:47 37° NE 03:35:00 10° ESE
IRS-1D 4.5 03:26:57 10° N 03:30:13 38° NNW 03:30:13 38° NNW
Iridium 4 Rocket 3.9 03:35:47 49° NE 03:35:47 49° NE 03:39:15 10° N
CENTAUR R/B 3.3 03:28:40 10° NW 03:36:23 71° NE 03:45:07 10° ESE
COSMOS 2428 4.1 03:32:07 10° NNW 03:37:24 37° NE 03:42:41 10° ESE
IRS-1C 4.1 03:38:55 10° NNE 03:43:57 76° NNW 03:43:57 76° NNW
Lacrosse 4 Rocket 3.4 03:51:56 21° SE 03:51:56 21° SE 03:53:28 10° SE
BREEZE M DEB (TANK) 4.4 03:51:34 17° ESE 03:51:34 17° ESE 03:52:42 10° E
CZ-2D R/B 3.8 03:46:54 10° N 03:49:41 21° NW 03:49:41 21° NW
USA 229 DEB 4.1 03:50:02 45° WNW 03:51:24 51° NNW 03:58:19 10° NE
USA 229 4.1 03:50:07 45° WNW 03:51:29 51° NNW 03:58:24 10° NE
USA 234 4.5 03:48:24 10° SSE 03:51:15 25° S 03:51:15 25° S
SL-08 ROCKET BODY 4.3 03:50:03 10° NNW 03:56:11 74° W 03:57:14 60° SSW
ISS -1.4 03:58:45 21° ESE 03:58:45 21° ESE 04:00:03 10° E
Cosmos 1743 Rocket 3.9 03:54:19 10° N 03:58:48 66° ENE 03:59:51 49° SE
NOSS 3-2 (C) 4.0 03:52:58 10° NW 04:00:11 79° NE 04:08:32 10° SE
Cosmos 2322 4.1 03:55:05 10° NNW 04:00:46 63° NE 04:06:23 10° SE
COSMOS 2441 4.2 03:56:32 10° NNE 04:01:16 82° NW 04:01:16 82° NW
Cosmos 1992 Rocket 3.9 03:56:22 10° NNW 04:01:38 85° ENE 04:06:50 10° SSE
GEOS 3 Rocket 3.7 03:56:44 10° NE 04:02:02 60° NW 04:02:32 58° WNW
Meteor 1-27 4.1 04:03:37 66° W 04:03:49 67° WNW 04:09:24 10° N
Cosmos 1869 4.4 04:05:44 36° N 04:05:44 36° N 04:08:19 10° N
Cosmos 2221 2.7 04:04:42 64° SE 04:05:00 67° E 04:09:21 10° NNE
ADEOS Rocket 4.1 04:09:59 23° NW 04:09:59 23° NW 04:12:21 10° NNW
SL-27 R/B 3.4 04:08:12 47° NE 04:08:12 47° NE 04:10:59 10° NNE
NOSS 3-1 (A) 4.0 04:06:36 39° WNW 04:08:09 46° NNW 04:14:55 10° NE
BREEZE-M DEB (TANK) 3.0 04:08:38 58° S 04:08:44 58° S 04:18:05 10° E
Cosmos 1269 Rocket 3.9 04:08:23 66° SSW 04:09:10 89° WNW 04:14:32 10° NNE
Cosmos 2344 4.1 04:06:15 25° S 04:10:31 53° ESE 04:18:16 10° NE
ARGOS Delta rocket 4.2 04:07:42 10° N 04:13:03 54° WNW 04:13:11 54° WNW
S3M 3.9 04:13:57 28° S 04:17:26 86° E 04:23:41 10° NNE
Cosmos 1745 Rocket 3.9 04:11:49 10° NNW 04:18:04 69° W 04:23:55 12° S
CZ-2D R/B 3.8 04:14:21 10° N 04:17:47 51° NNW 04:17:47 51° NNW
Meteor 2-2 Rocket 4.4 04:15:21 28° S 04:18:45 82° E 04:24:49 10° NNE
Sich 1 4.1 04:15:08 10° N 04:19:26 46° ENE 04:23:41 10° SSE
MSX 3.8 04:14:36 10° N 04:20:15 60° WNW 04:21:27 50° WSW
Lacrosse 5 1.8 04:21:22 61° SW 04:21:37 62° SW 04:26:36 10° SE
Landsat 5 3.4 04:18:43 15° SSE 04:21:50 73° ENE 04:25:46 10° NNW
CZ-2C R/B 2.6 04:18:44 10° NNE 04:22:37 87° NE 04:22:37 87° NE
ALOS 3.3 04:20:31 10° NNE 04:25:01 45° E 04:29:29 10° S
NOSS 2-2 (D) 3.2 04:25:15 72° N 04:25:15 72° N 04:29:11 10° NE
Resurs 1-4 Rocket 4.1 04:25:48 10° NNW 04:28:11 14° NW 04:28:11 14° NW
Cosmos 2360 Rocket 2.2 04:23:38 10° NW 04:29:09 52° WSW 04:34:37 10° S
Cosmos 1709 Rocket 4.0 04:23:43 10° N 04:30:09 89° WSW 04:36:33 10° S
Helios 1B 4.4 04:28:57 31° S 04:30:59 72° WSW 04:35:20 10° NNW
Cosmos 2333 4.1 04:25:58 10° NNW 04:31:46 80° WSW 04:37:33 10° SSE
ARIANE 5 R/B 2.9 04:28:31 10° N 04:33:16 43° WNW 04:33:41 42° WNW
Cosmos 2237 Rocket 3.6 04:29:10 10° NNW 04:34:29 38° NE 04:39:44 10° ESE
Cosmos 1500 Rocket 3.5 04:30:30 10° NNW 04:34:48 59° W 04:35:01 58° WSW
CZ-2C R/B 2.2 04:32:09 10° NNE 04:36:59 85° WNW 04:39:09 32° SSW
CZ-4B R/B 3.8 04:34:50 10° ESE 04:37:19 23° ENE 04:39:48 10° NNE
Meteor 1-4 Rocket 2.4 04:37:50 73° WNW 04:37:50 73° WNW 04:41:24 10° N
CZ-4B R/B 4.3 04:33:19 10° N 04:37:55 33° WNW 04:38:12 33° WNW
USA 238 DEB 3.8 04:33:29 10° NW 04:40:35 63° SW 04:47:59 10° SSE
USA 238 3.8 04:33:36 10° NW 04:40:41 64° SW 04:48:05 10° SSE
CZ-4C R/B 2.9 04:44:41 61° NW 04:44:41 61° NW 04:47:44 10° NNW
H-2A R/B 1.9 04:43:44 10° SSE 04:47:58 86° ENE 04:52:09 10° NNW
NOSS 0 Rocket 4.4 04:43:02 10° NNW 04:49:12 64° NE 04:55:20 10° SE
ATLAS 3B R/B 3.4 04:42:42 10° NW 04:49:25 54° NNE 04:56:25 10° ESE
SeaSat 1 2.4 04:45:11 10° SE 04:50:07 84° ENE 04:55:06 10° NNW
Cosmos 1842 Rocket 3.8 04:50:13 43° W 04:50:50 46° WNW 04:55:03 10° N
Spot 4 Rocket 4.3 04:45:59 10° N 04:50:54 46° WNW 04:52:37 34° WSW
Cosmos 1484 Rocket 3.2 04:47:24 10° NNE 04:51:07 59° ESE 04:54:46 10° S
Cosmos 2333 Rocket 2.1 04:45:26 10° NW 04:51:12 72° WSW 04:56:56 10° SSE
ADEOS II 3.8 04:48:31 10° NNW 04:51:44 17° NW 04:52:02 17° NW
Cosmos 1633 Rocket 3.9 04:49:46 10° N 04:54:06 53° ENE 04:58:24 10° SSE
Cosmos 2082 Rocket 3.6 04:53:00 20° WNW 04:54:58 23° NNW 04:59:29 10° NNE
CZ-4C R/B 3.9 04:51:10 10° S 04:55:28 29° ESE 05:00:28 10° ENE
SKYMED 2 4.4 04:51:24 10° SE 04:55:38 54° ENE 04:59:54 10° N
SL-16 R/B 4.2 04:50:50 10° NNW 04:55:39 27° NE 05:00:27 10° E
IDEFIX/ARIANE 42P 3.7 04:52:47 10° N 04:56:58 25° WNW 04:57:42 24° WNW
USA 267 3.3 04:54:03 10° ENE 05:00:35 73° NNW 05:04:48 24° W
MOS 1 Rocket 3.6 04:58:45 10° SSE 05:03:07 67° ENE 05:07:47 10° N
Cosmos 2251 Rocket 3.6 04:59:28 11° SSW 05:04:36 81° ESE 05:10:02 10° NNE
Geosat 4.1 05:02:30 10° NE 05:07:34 78° ESE 05:12:32 10° SSW
SWAS 4.4 05:03:17 10° NW 05:07:37 66° WSW 05:11:53 10° SSE
NOSS 3-2 (A) 4.4 05:03:22 10° NW 05:10:18 42° WSW 05:18:03 10° S
COSMOS 2487 2.3 05:08:44 21° SSW 05:10:52 85° ESE 05:14:19 10° NNE
Meteor 2-17 Rocket 4.5 05:06:32 10° NNW 05:12:26 55° W 05:18:19 10° S
Cosmos 883 Rocket 4.4 05:06:29 10° SSW 05:12:33 63° WNW 05:18:39 10° N
Cosmos 2219 Rocket 2.2 05:08:29 10° NW 05:14:02 58° WSW 05:19:35 10° SSE
NOSS 2-2 (C) 4.0 05:12:51 27° WNW 05:14:16 38° NNW 05:18:20 10° NE
Cosmos 1980 4.1 05:13:29 10° NNW 05:19:09 68° NE 05:24:49 10° SE
Cosmos 1606 2.9 05:17:19 18° SW 05:20:00 49° WNW 05:23:49 10° N
PSLV R/B 3.9 05:17:03 10° N 05:21:14 45° WNW 05:24:30 16° SW
COSMOS 2428 2.7 05:16:23 10° NW 05:22:00 59° WSW 05:27:36 10° SSE
Cosmos 614 Rocket 4.1 05:18:51 10° SSW 05:24:05 80° ESE 05:29:20 10° NNE
Iridium 51 4.1 05:20:43 10° N 05:24:41 79° W 05:28:19 10° S
Cosmos 1500 4.3 05:21:27 10° N 05:25:08 47° ENE 05:28:49 10° SSE
CENTAUR R/B 3.4 05:19:30 10° NW 05:27:08 49° WSW 05:35:29 10° SSE
Lacrosse 4 Rocket 3.1 05:28:22 17° SW 05:28:22 17° SW 05:30:12 10° SSW
NOSS 2-2 (E) 4.5 05:25:47 20° WNW 05:27:47 31° NNW 05:31:51 10° NE
Cosmos 407 Rocket 4.2 05:24:10 10° S 05:29:12 55° ESE 05:34:14 10° NNE
Cosmos 2315 Rocket 4.1 05:25:21 10° SSW 05:31:25 57° WNW 05:37:33 10° N
Cosmos 1328 Rocket 4.1 05:27:46 10° S 05:32:00 60° E 05:36:17 10° NNE
Meteor 1-25 Rocket 4.2 05:27:05 10° NNW 05:32:36 61° W 05:38:02 10° S
ISS -3.0 05:31:43 23° WSW 05:33:18 38° SSW 05:36:26 10° SE
CSL-04 DEB 4.2 05:30:09 10° S 05:34:05 67° WSW 05:38:01 10° NNW
Cosmos 1602 3.6 05:30:32 10° NNW 05:34:28 71° W 05:38:22 10° S
Cosmos 1805 Rocket 4.4 05:31:24 10° NNW 05:35:17 30° W 05:39:10 10° SSW
METEOR-M 4.1 05:30:12 10° NNE 05:35:31 68° WNW 05:40:49 10° SSW
Cosmos 1470 Rocket 3.7 05:32:29 10° N 05:36:54 80° E 05:41:13 10° SSE
ERS-2 2.9 05:36:00 10° SSE 05:39:33 55° ENE 05:43:08 10° N
SL-27 R/B 4.3 05:41:43 15° WNW 05:42:52 17° NW 05:45:19 10° N
Cosmos 2221 4.0 05:41:33 16° W 05:43:03 18° WNW 05:46:07 10° NNW
ATLAS 5 CENTAUR R/B 2.7 05:39:22 10° SSW 05:43:09 41° SE 05:47:26 10° NE
COSMO-SKYMED 1 2.6 05:39:28 10° S 05:43:44 57° W 05:48:03 10° NNW
Cosmos 2322 4.4 05:39:45 10° NW 05:44:37 30° WSW 05:49:26 10° SSW
Cosmos 1933 3.4 05:40:57 10° SSW 05:44:55 57° WNW 05:48:57 10° N
deb Chang Zheng 4 4.4 05:43:25 10° NNE 05:47:39 54° ESE 05:51:52 10° S
FENGYUN 3A 4.1 05:44:18 10° N 05:49:27 43° WNW 05:54:33 10° SW
Cosmos 2074 Rocket 4.0 05:43:49 10° NNW 05:49:57 62° W 05:56:02 10° S
PSLV R/B 4.1 05:46:19 10° SSE 05:50:30 83° ENE 05:54:40 10° NNW
NOSS 3-4 (A) 4.0 05:45:40 10° SSW 05:51:27 60° SE 05:57:43 10° NE
NOSS 3-4 (C) 4.0 05:45:46 10° SSW 05:51:32 60° SE 05:57:49 10° NE
Meteor 1-14 Rocket 4.2 05:47:22 10° NNW 05:53:01 78° W 05:58:46 10° S
YAOGAN 6 3.7 05:50:00 10° NNE 05:53:25 46° E 05:56:48 10° S
Envisat 3.9 05:49:43 10° NNE 05:54:44 55° E 05:59:43 10° S
Cosmos 2154 Rocket 4.0 05:48:34 10° NNW 05:54:49 82° W 06:01:05 10° S
SJ-12 3.8 05:51:45 10° N 05:55:49 68° WNW 05:59:50 10° SSW
Sich 1 4.1 05:53:17 10° NNW 05:56:51 24° W 06:00:23 10° SW
Cosmos 1933 Rocket 3.7 05:53:00 10° N 05:57:29 86° ENE 06:01:57 10° S
Cosmos 1666 Rocket 4.2 05:54:54 10° NNW 05:58:50 34° W 06:02:48 10° SSW
H-2A R/B 3.0 05:55:53 10° NNE 05:59:49 79° E 06:03:43 10° S
ALOS 3.1 05:58:13 10° N 06:02:18 30° WNW 06:06:21 10° WSW
Meteor 1-31 Rocket 3.0 05:59:09 10° N 06:02:55 48° WNW 06:06:37 10° SW
Lacrosse 5 3.4 06:00:36 10° W 06:03:47 18° SW 06:07:05 10° SSW
ADEOS 3.7 05:59:45 10° N 06:04:54 58° WNW 06:10:00 10° SW
ATLAS 2AS CENTAUR R/B 3.7 05:58:50 10° SSW 06:06:34 60° SE 06:14:09 10° NE
CZ-4B R/B 3.2 06:02:52 10° NNE 06:07:23 87° WNW 06:11:55 10° SSW
CZ-4B R/B 2.1 06:06:46 10° SSW 06:09:27 26° W 06:12:06 10° NW
Cosmos 1812 3.2 06:06:10 10° S 06:09:57 65° E 06:13:47 10° NNE
Cosmos 1140 Rocket 3.5 06:06:51 10° SSW 06:12:04 84° WNW 06:17:17 10° NNE
USA 276 3.3 06:09:05 10° SW 06:12:05 37° SSE 06:15:04 10° E
Cosmos 2184 Rocket 4.3 06:08:33 10° NNW 06:14:30 45° W 06:20:28 10° SSW
CZ-2C R/B 3.9 06:11:30 10° NNW 06:14:31 17° NW 06:17:29 10° W
Cosmos 2237 Rocket 2.3 06:13:15 10° NW 06:18:49 56° WSW 06:24:19 10° S
SL-8 Rocket 4.4 06:12:59 10° N 06:19:09 69° ENE 06:25:17 10° SSE
Meteor 1-5 Rocket 4.3 06:14:25 10° NNW 06:20:15 72° W 06:26:10 10° S
CZ-2C R/B 2.9 06:15:26 10° SSE 06:21:04 90° ENE 06:26:43 10° NNW
Cosmos 2344 3.9 06:17:35 10° WSW 06:24:57 57° NNW 06:33:38 10° NE
